Kingsport, TN

11:27 PM EST on January 20, 2017 (GMT -0500)
Tri-Cities

Weather History for KTRI - February, 2011

Change the Weather History Date:

Sunday, February 27, 2011

  Actual Average Record
Temperature  
Mean Temperature 49 °F 42 °F  
Max Temperature 62 °F 54 °F 74 °F (1996)
Min Temperature 35 °F 31 °F 2 °F (1963)
Degree Days  
Heating Degree Days 16 23  
Month to date heating degree days 623 705  
Since 1 July heating degree days 3491 3359  
Cooling Degree Days 0 0  
Month to date cooling degree days 0 0  
Year to date cooling degree days 0 0  
Moisture  
Dew Point 46 °F    
Average Humidity 74    
Maximum Humidity 96    
Minimum Humidity 51    
Precipitation  
Precipitation 0.23 in 0.12 in 1.02 in (1987)
Month to date precipitation 2.85 3.33  
Year to date precipitation 4.73 6.70  
Snow  
Snow 0.00 in 0.10 in - ()
Month to date snowfall 0.6 3.3  
Since 1 July snowfall 14.3 10.7  
Snow Depth 0.00 in    
Sea Level Pressure  
Sea Level Pressure 29.96 in    
Wind  
Wind Speed 1 mph (SSW)    
Max Wind Speed 15 mph    
Max Gust Speed 17 mph    
Visibility 5 miles    
Events Fog , Rain    
T = Trace of Precipitation, MM = Missing Value Source: NWS Daily Summary

Daily Weather History Graph

Daily Weather History Graph

Search for Another Location

Airport or City:

Trip Planner

Search our weather history database for the weather conditions in past years. The results will help you decide how hot, cold, wet, or windy it might be!

Date:

Astronomy

Feb. 27, 2011 Rise Set
Actual Time 7:03 AM EST 6:22 PM EST
Civil Twilight 6:37 AM EST 6:48 PM EST
Nautical Twilight 6:07 AM EST 7:17 PM EST
Astronomical Twilight 5:37 AM EST 7:47 PM EST
Moon 3:45 AM EST (2/27) 1:43 PM EST (2/27)
Length of Visible Light 12h 10m
Length of Day
11h 18m
Waning Crescent, 23% of the Moon is Illuminated
Feb 27
Waning Crescent
Mar 4
New
Mar 12
First Quarter
Mar 19
Full
Mar 26
Last Quarter

Hourly Weather History & Observations

Time (EST) Temp. Dew Point Humidity Pressure Visibility Wind Dir Wind Speed Gust Speed Precip Events Conditions
12:53 AM 37.9 °F 32.0 °F 79% 29.91 in 10.0 mi Calm Calm - N/A   Clear
1:53 AM 37.0 °F 32.0 °F 82% 29.91 in 10.0 mi Calm Calm - N/A   Clear
2:53 AM 37.0 °F 32.0 °F 82% 29.91 in 10.0 mi Calm Calm - N/A   Clear
3:53 AM 36.0 °F 30.9 °F 82% 29.92 in 10.0 mi Calm Calm - N/A   Clear
4:53 AM 37.0 °F 32.0 °F 82% 29.94 in 10.0 mi Calm Calm - N/A   Partly Cloudy
5:53 AM 37.0 °F 33.1 °F 86% 29.96 in 10.0 mi Calm Calm - N/A   Mostly Cloudy
6:53 AM 39.0 °F 34.0 °F 82% 29.98 in 10.0 mi Calm Calm - N/A   Mostly Cloudy
7:53 AM 41.0 °F 35.1 °F 79% 29.99 in 10.0 mi Calm Calm - N/A   Mostly Cloudy
8:53 AM 46.0 °F 36.0 °F 68% 30.02 in 10.0 mi Calm Calm - N/A   Scattered Clouds
9:53 AM 51.1 °F 37.9 °F 61% 30.01 in 10.0 mi Calm Calm - N/A   Mostly Cloudy
10:53 AM 57.9 °F 39.9 °F 51% 30.01 in 10.0 mi Calm Calm - N/A   Mostly Cloudy
11:53 AM 61.0 °F 48.9 °F 64% 30.01 in 10.0 mi SSW 10.4 mph - 0.00 in Rain Light Rain
12:53 PM 57.9 °F 48.9 °F 72% 30.01 in 10.0 mi SSW 11.5 mph - 0.00 in   Overcast
1:53 PM 55.9 °F 51.1 °F 84% 29.99 in 3.0 mi SSW 4.6 mph - 0.03 in Rain Heavy Rain
2:45 PM 55.4 °F 51.8 °F 88% 30.00 in 1.8 mi Calm Calm - 0.06 in Rain Heavy Rain
2:50 PM 55.4 °F 51.8 °F 88% 30.00 in 1.8 mi Calm Calm - 0.08 in Rain Rain
2:53 PM 55.0 °F 52.0 °F 89% 29.98 in 2.0 mi Calm Calm - 0.09 in Rain Rain
3:10 PM 55.4 °F 53.6 °F 94% 30.00 in 3.0 mi Calm Calm - 0.01 in Rain Light Rain
3:18 PM 55.4 °F 53.6 °F 94% 30.00 in 3.0 mi Calm Calm - 0.01 in Rain Light Rain
3:53 PM 55.9 °F 53.1 °F 90% 29.98 in 2.5 mi Calm Calm - 0.04 in Rain Light Rain
4:44 PM 55.4 °F 53.6 °F 94% 29.99 in 1.2 mi Calm Calm - 0.03 in Rain Rain
4:53 PM 55.9 °F 53.1 °F 90% 29.96 in 1.0 mi Calm Calm - 0.05 in Rain Light Rain
5:09 PM 55.4 °F 53.6 °F 94% 29.99 in 1.8 mi Calm Calm - 0.02 in Rain Light Rain
5:18 PM 55.4 °F 53.6 °F 94% 29.99 in 2.5 mi Calm Calm - 0.02 in   Overcast
5:53 PM 55.9 °F 53.1 °F 90% 29.95 in 2.5 mi Calm Calm - 0.02 in   Overcast
6:10 PM 55.4 °F 53.6 °F 94% 29.97 in 7.0 mi Calm Calm - N/A   Mostly Cloudy
6:53 PM 55.0 °F 52.0 °F 89% 29.93 in 7.0 mi Calm Calm - 0.00 in   Mostly Cloudy
7:53 PM 52.0 °F 50.0 °F 93% 29.90 in 0.2 mi Calm Calm - N/A Fog Fog
8:16 PM 51.8 °F 50.0 °F 94% 29.93 in 0.1 mi Calm Calm - N/A Fog Fog
8:53 PM 50.0 °F 48.0 °F 93% 29.90 in 0.1 mi Calm Calm - N/A Fog Fog
9:53 PM 48.9 °F 46.9 °F 93% 29.89 in 0.1 mi Calm Calm - N/A Fog Fog
9:59 PM 48.2 °F 46.4 °F 93% 29.92 in 0.2 mi Calm Calm - N/A Fog Fog
10:09 PM 48.2 °F 46.4 °F 93% 29.92 in 0.5 mi Calm Calm - N/A Fog Fog
10:29 PM 50.0 °F 46.4 °F 87% 29.92 in 0.2 mi Calm Calm - N/A Fog Fog
10:36 PM 48.2 °F 46.4 °F 93% 29.92 in 0.5 mi Calm Calm - N/A Fog Fog
10:46 PM 48.2 °F 46.4 °F 93% 29.93 in 0.2 mi Calm Calm - N/A Fog Fog
10:53 PM 48.0 °F 46.0 °F 93% 29.90 in 0.5 mi Calm Calm - N/A Fog Fog
11:53 PM 48.0 °F 45.0 °F 89% 29.90 in 0.5 mi Calm Calm - N/A Fog Fog